Погода в Курдамире

Погода в Курдамире : погода сейчас, прогноз погоды и архив. Всё, что Вы хотите узнать о погоде в Курдамире!

Поиск расширенной информации на нашем сайте:

Другие новости

Новости СМИ2

Главная страница сайта

Новости сайта

03.07.2017

Напоминаем, что на нашем специализированном сайте Метеоцентр.Азия вы можете получить высокодетализированные автоматические прогнозы погоды по пунктам России, СНГ и мира в авиационном формате (включающие направление и скорость ветра, видимость, явления погоды, количество и форму облачности, нижнюю и верхнюю границу облачности).


Погода в Курдамире - сегодня

Время (UTC), дата Ветер
(°,м/с) 
Видим.   Явления Облачность Т
(°С)
Тd
(°С)
f(%) Тe
(°С)
Pmin
(гПа)
dP
(гПа)
Po
(мм)
O2
(г/м3)
Тmin Tmax R s Состояние
почвы
03 18.07.17 350 (С) 20000 м    ясно 
+23.5 +11.2 46 +26  1012.8  0.4  759  280           
06 18.07.17 120 (ЮВ) 20000 м    ясно 
+29.9 +16.9 46 +42  1012.6  -0.2  759  272           
09 18.07.17 040 (СВ) 20000 м    ясно 
+34.2 +14.7 31 +42  1011.1  -1.5  758  269           
12 18.07.17 350 (С) 20000 м    ясно 
+36.8 +13.8 25 +43  1009.6  -1.5  757  266           
15 18.07.17 160 (Ю) 20000 м    ясно 
+35.5 +9.3 20 +36  1009.2  -0.4  757  268           
18 18.07.17 140 (ЮВ) 20000 м    ясно 
+27.9 +10.2 33 +29  1010.5  1.3  758  275    +38.7       
21 18.07.17 070 (В) 20000 м    ясно 
+25 +9.5 37 +25  1010.1  -0.4  757  278           
00 19.07.17 080 (В) 20000 м    ясно 
+23.1 +6.4 34 +23  1009.8  -0.3  757  280           
03 19.07.17 290 (З) 20000 м    ясно 
+20.6 +9.4 49 +21  1010.4  0.6  757  282           
06 19.07.17 тихо ()   20000 м    6/0 
+30.2 +8.5 26 +30  1010.6  0.2  758  273           
09 19.07.17 140 (ЮВ) 20000 м    4/0 средняя 
[Ac trans]
+36 +6.6 16 +36  1008.9  -1.7  756  268           
12 19.07.17 160 (Ю) 20000 м    6/0 средняя 
[Ac trans]
+37.2 +11.2 21 +40  1006.7  -2.2  755  266           
15 19.07.17 140 (ЮВ) 20000 м    8/0 средняя 
[Ac trans]
+36 +6.4 16 +36  1005.7  -1  754  267           
18 19.07.17 150 (ЮВ) 20000 м    4/3 600 м средняя 
[Sc|Ac trans]
+28.2 +13.8 41 +35  1006.9  0.2  755  273    +38.4       
21 19.07.17 080 (В) 20000 м    ясно 
+25.7 +14.7 51 +34  1006.7  -0.2  755  275           
00 20.07.17 090 (В) 20000 м    ясно 
+22.8 +10.7 46 +25  1006.2  -0.5  754  279           
03 20.07.17 320 (СЗ) 20000 м    8/5 600 м средняя 
[Sc|Ac trans]
+21.7 +13.8 61 +28  1007  0.8  755  279           
09 20.07.17 230 (ЮЗ) 20000 м    4/0 средняя 
[Ac trans]
+36.3 +6.9 16 +36  1006.6  -1.1  755  267           
12 20.07.17 130 (ЮВ) 20000 м    8/4 600 м средняя 
[Sc|Ac trans]
+37.5 +5.5 14 +38  1004.5  -2.1  753  266           
15 20.07.17 200 (Ю) 20000 м    6/0 средняя 
[Ac trans]
+37.2 +7.9 17 +37  1003.3  -1.2  752  265           
21 20.07.17 190 (Ю) 20000 м    ясно 
+25.6 +17.7 62 +39  1005.5  0.6  754  274           
00 21.07.17 060 (СВ) 20000 м    ясно 
+23.6 +19.5 78 +41  1006.2  0.7  754  275           
03 21.07.17 120 (ЮВ) 20000 м    9/5 600 м средняя 
[Sc|Ac trans]
+23.3 +14.1 56 +30  1007  0.8  755  277           
06 21.07.17 300 (СЗ) 20000 м    4/0 верхняя 
[Ci fib]
+29.7 +19.4 54 +47  1008.3  1.3  756  270           
09 21.07.17 030 (СВ) 66  20000 м    1/0 
+12.2   1007.6  -0.7  755             
Время (UTC), дата Ветер
(°,м/с) 
Видим.   Явления Облачность Т
(°С)
Тd
(°С)
f(%) Тe
(°С)
Pmin
(гПа)
dP
(гПа)
Po
(мм)
O2
(г/м3)
Тmin Tmax R s Состояние
почвы

Для получения пояснительной информации подведите курсор к названию столбца.

ПОГОДА в Курдамире - архив

Всё, что Вы хотите узнать о погоде в Курдамире - удобно и подробно!

Выберите нужную дату (начиная с 1 января 2015* года) и нажмите кнопку "Найти".
Будут отображены архивные сводки погоды по пункту Курдамир, начиная с указанной даты.


Отображать данные в формате CSV (для использования в таблицах Excel)


Внимание! Наш архив погоды предназначен исключительно для личного некоммерческого использования в познавательных целях. Если Вам необходимы официальные справки о состоянии погоды (для производственных, юридических, коммерческих и т.п. целей), обращайтесь в органы Росгидромета.

*Примечание: данная дата относится к архиву по метеостанциям СССР (Россия, СНГ, Балтия).
Архив по метеостанциям Зарубежной Европы и Азии (кроме Китая) хранится 10 дней, по другим регионам земного шара (Китай, Африка, Америка, Австралия, Океания) - 1 день.

Курдамир - район местоположения метеостанции


Название, широта, долгота, высота метеостанции:
Курдамир 40.3°ш. 48.2°д. 4 м над ур. моря [Азербайджан]

Дополнительная информация

В oтличие oт бoльшинства пoгoдных сайтoв мы публикуем пoдрoбную метеoинфoрмацию в детальнoм прoфессиoнальнoм фoрмате.

Характеристики температуры и влажнoсти вoздуха измеряются на высoте 2 м в тени вдали oт зданий и деревьев.
Скoрoсть ветра измеряется на высoте 10 м (на урoвне рoста челoвека скoрoсть ветра ниже в 1.5-2 раза). Если метеoстанция нахoдится в гoрoде или в лесу, тo скoрoсть ветра занижена на 2-4 м/с пo сравнению с oткрытым местoм. Скoрoсть ветра над акватoриями крупных рек и oзёр, а также на вершинах хoлмoв на 2-5 м/с выше, чем в oбычных услoвиях.
Атмoсфернoе давление в разных тoчках местнoсти мoжет значительнo oтличаться oт давления на метеoстанции, в зависимoсти oт услoвий рельефа (при пoдъёме на 10 м давление пoнижается примернo на 1 мм рт.ст.).